This is the latest recevied weather packets stored in our database for station/object I1SXT-13. If no packets are shown the sender has not sent any weather packets the latest 10 day(s).
| Time | Temp. | Humidity | Pressure | Rain* | Wind** | Luminosity | Snow |
|---|---|---|---|---|---|---|---|
| 1778086770 | 17.22° C | 77% | 1011 hPa | 34.29 mm | - | - | - |
| 1778086466 | 17.22° C | 77% | 1010.7 hPa | 34.29 mm | - | - | - |
| 1778086169 | 16.67° C | 76% | 1011 hPa | 34.29 mm | - | - | - |
| 1778085865 | 16.67° C | 76% | 1010.9 hPa | 34.29 mm | - | - | - |
| 1778085567 | 17.22° C | 78% | 1010.9 hPa | 34.29 mm | - | - | - |
| 1778085264 | 17.22° C | 78% | 1011.1 hPa | 34.29 mm | - | - | - |
| 1778084966 | 17.22° C | 78% | 1011.1 hPa | 34.29 mm | - | - | - |
| 1778084669 | 17.22° C | 77% | 1010.7 hPa | 34.29 mm | - | - | - |
| 1778084365 | 17.78° C | 76% | 1010.5 hPa | 34.29 mm | - | - | - |
| 1778084068 | 17.78° C | 76% | 1010.9 hPa | 34.29 mm | - | - | - |
| 1778083764 | 18.33° C | 76% | 1011.3 hPa | 34.29 mm | - | - | - |
| 1778083467 | 17.78° C | 79% | 1011.2 hPa | 34.29 mm | - | - | - |
| 1778083170 | 17.78° C | 79% | 1010.9 hPa | 34.29 mm | - | - | - |
| 1778082866 | 17.78° C | 79% | 1010.5 hPa | 34.29 mm | - | - | - |
| 1778082568 | 17.78° C | 78% | 1010.6 hPa | 34.29 mm | - | - | - |
| 1778082264 | 17.78° C | 77% | 1010.7 hPa | 34.29 mm | - | - | - |
| 1778081967 | 17.78° C | 76% | 1010.8 hPa | 34.29 mm | - | - | - |
| 1778081670 | 17.78° C | 79% | 1010.1 hPa | 34.29 mm | - | - | - |
| 1778081366 | 18.33° C | 78% | 1010 hPa | 34.29 mm | - | - | - |
| 1778081069 | 17.78° C | 79% | 1010.1 hPa | 34.29 mm | - | - | - |
| 1778080765 | 18.33° C | 77% | 1010.8 hPa | 34.29 mm | - | - | - |
| 1778080468 | 18.33° C | 77% | 1011.3 hPa | 34.29 mm | - | - | - |
| 1778080163 | 18.33° C | 79% | 1010.9 hPa | 34.29 mm | - | - | - |
| 1778079866 | 18.89° C | 74% | 1010.3 hPa | 34.29 mm | - | - | - |
| 1778079569 | 19.44° C | 74% | 1011.1 hPa | 34.29 mm | - | - | - |
* Rain since midnight (hover to see other rain measurements)
** Current wind speed in m/s (hover to see current wind gust speed)